Simultaneous Nadir Overpasses (SNOs) Predictions

Prediction of SNOs between AQUA and GOES-15 Satellite Orbit:

Table of predicted SNOs for the next 14.0 days since TLE Epoch: 5/22/2020
Index Date Time (AQUA) AQUA Lat,Lon GOES-15 Lat,Lon Distance(km) Time Diff (sec)
1 05/22/2020 22:04:18 0.30,-127.19 0.05,-128.25 121.11 80
2 05/23/2020 10:25:32 0.85,-132.33 -0.02,-128.26 463.59 80
3 05/24/2020 21:52:06 0.90,-124.23 0.05,-128.22 454.32 80
4 05/25/2020 10:13:21 0.20,-129.38 -0.03,-128.23 130.69 80
5 05/27/2020 10:01:09 -0.40,-126.42 -0.04,-128.19 201.56 80
6 05/27/2020 22:22:32 -0.75,-131.60 0.01,-128.17 391.52 80
7 05/29/2020 22:10:22 -0.08,-128.65 0.02,-128.13 59.58 80
8 05/31/2020 21:58:10 0.53,-125.69 0.02,-128.08 272.09 80
9 06/01/2020 10:19:24 0.58,-130.84 -0.00,-128.09 312.62 80
10 06/03/2020 10:07:12 -0.03,-127.88 -0.01,-128.05 18.29 80
11 06/05/2020 09:55:01 -0.64,-124.92 -0.02,-127.99 348.52 80




NCC Satellite Simultaneous Nadir Overpasses (SNOs) Prediction Service
